Location: Recife
(8.0585°S, 34.8848°W)
Time: 12:03:22
(UTC-03:00)

Vanguard 1 Rocket - Pass Details

Date: 19 April 2026
Orbit: 655 x 4212 km, 34.3° (Epoch: 12 May)

Event Time Altitude Azimuth Distance (km) Brightness Sun altitude
Rises 18:55:57 0° 263° (W) 6,275 12.9 -25.3°
Reaches altitude 10° 19:00:13 10° 272° (W) 5,715 12.4 -26.4°
Maximum altitude 19:16:39 34° 329° (NNW) 5,234 11.4 -30.4°
Drops below altitude 10° 19:38:35 10° 26° (NNE) 7,354 11.8 -35.8°
Sets 19:45:29 0° 36° (NE) 8,191 12.0 -37.5°
